This is the latest recevied weather packets stored in our database for station/object WE0DX-1. If no packets are shown the sender has not sent any weather packets the latest 1 day(s).
| Time | Temp. | Humidity | Pressure | Rain* | Wind** | Luminosity | Snow |
|---|---|---|---|---|---|---|---|
| 1778022496 | 11.11° C | 79% | 1011.2 hPa | 0 mm | 0 m/s | 27 W/m² | - |
| 1778022192 | 11.11° C | 80% | 1011.2 hPa | 0 mm | 0 m/s | 36 W/m² | - |
| 1778021889 | 11.67° C | 79% | 1010.8 hPa | 0 mm | 0 m/s | 39 W/m² | - |
| 1778021587 | 11.67° C | 80% | 1010.8 hPa | 0 mm | 0 m/s | 44 W/m² | - |
| 1778021282 | 11.67° C | 79% | 1010.8 hPa | 0 mm | 0 m/s | 48 W/m² | - |
| 1778020980 | 11.67° C | 78% | 1010.6 hPa | 0 mm | 0 m/s | 50 W/m² | - |
| 1778020677 | 11.67° C | 78% | 1010.9 hPa | 0 mm | 0 m/s | 59 W/m² | - |
| 1778020374 | 11.11° C | 77% | 1011 hPa | 0 mm | 0 m/s | 57 W/m² | - |
| 1778020069 | 11.11° C | 78% | 1011.1 hPa | 0 mm | 0 m/s | 68 W/m² | - |
| 1778019766 | 11.11° C | 78% | 1010.9 hPa | 0 mm | 0 m/s | 76 W/m² | - |
| 1778019463 | 11.11° C | 79% | 1010.9 hPa | 0 mm | 0 m/s | 77 W/m² | - |
| 1778019160 | 11.11° C | 78% | 1010.9 hPa | 0 mm | 0 m/s | 79 W/m² | - |
| 1778018856 | 11.11° C | 80% | 1010.7 hPa | 0 mm | 0 m/s | 90 W/m² | - |
| 1778018554 | 11.11° C | 80% | 1010.9 hPa | 0 mm | 0 m/s | 78 W/m² | - |
| 1778018252 | 11.11° C | 80% | 1011 hPa | 0 mm | 0 m/s | 63 W/m² | - |
| 1778017949 | 11.11° C | 78% | 1010.9 hPa | 0 mm | 0 m/s | 65 W/m² | - |
| 1778017647 | 11.11° C | 79% | 1011.3 hPa | 0 mm | 0 m/s | 58 W/m² | - |
| 1778017344 | 11.11° C | 79% | 1011.2 hPa | 0 mm | 0 m/s | 61 W/m² | - |
| 1778017041 | 11.11° C | 77% | 1011.1 hPa | 0 mm | 0 m/s | 62 W/m² | - |
| 1778016739 | 11.11° C | 76% | 1010.9 hPa | 0 mm | 0 m/s | 81 W/m² | - |
| 1778016434 | 11.11° C | 79% | 1011.2 hPa | 0 mm | 0 m/s | 66 W/m² | - |
| 1778016132 | 11.11° C | 77% | 1011 hPa | 0 mm | 0 m/s | 64 W/m² | - |
| 1778015829 | 11.11° C | 76% | 1010.9 hPa | 0 mm | 0 m/s | 129 W/m² | - |
| 1778015526 | 11.11° C | 76% | 1011.1 hPa | 0 mm | 0 m/s | 111 W/m² | - |
| 1778015222 | 11.11° C | 75% | 1011.5 hPa | 0 mm | 0.45 m/s, 29° | 69 W/m² | - |
* Rain latest hour (hover to see other rain measurements)
** Current wind speed in m/s (hover to see current wind gust speed)